This is the latest recevied weather packets stored in our database for station/object DG4DAZ-6. If no packets are shown the sender has not sent any weather packets the latest 10 day(s).
| Time | Temp. | Humidity | Pressure | Rain* | Wind** | Luminosity | Snow |
|---|---|---|---|---|---|---|---|
| 1777151671 | 9.44° C | 61% | 1019.9 hPa | 0 mm | - | 0 W/m² | - |
| 1777151070 | 9.44° C | 61% | 1019.8 hPa | 0 mm | - | 0 W/m² | - |
| 1777150470 | 9.44° C | 60% | 1019.7 hPa | 0 mm | - | 0 W/m² | - |
| 1777149870 | 9.44° C | 58% | 1019.6 hPa | 0 mm | - | 0 W/m² | - |
| 1777149269 | 10° C | 58% | 1019.6 hPa | 0 mm | - | 0 W/m² | - |
| 1777148671 | 10° C | 58% | 1019.5 hPa | 0 mm | - | 0 W/m² | - |
| 1777148070 | 10° C | 58% | 1019.4 hPa | 0 mm | - | 0 W/m² | - |
| 1777147469 | 10.56° C | 57% | 1019.3 hPa | 0 mm | - | 0 W/m² | - |
| 1777146869 | 10.56° C | 57% | 1019.3 hPa | 0 mm | - | 0 W/m² | - |
| 1777146271 | 11.11° C | 56% | 1019.1 hPa | 0 mm | - | 0 W/m² | - |
| 1777145670 | 11.11° C | 56% | 1019.1 hPa | 0 mm | - | 0 W/m² | - |
| 1777145069 | 11.11° C | 55% | 1019 hPa | 0 mm | - | 0 W/m² | - |
| 1777144471 | 11.11° C | 55% | 1019 hPa | 0 mm | - | 0 W/m² | - |
| 1777143870 | 11.67° C | 54% | 1018.8 hPa | 0 mm | - | 0 W/m² | - |
| 1777143271 | 11.67° C | 53% | 1018.9 hPa | 0 mm | - | 0 W/m² | - |
| 1777142670 | 11.67° C | 52% | 1018.9 hPa | 0 mm | - | 1 W/m² | - |
| 1777142070 | 12.22° C | 51% | 1018.8 hPa | 0 mm | - | 7 W/m² | - |
| 1777141469 | 12.22° C | 50% | 1018.8 hPa | 0 mm | - | 11 W/m² | - |
| 1777140871 | 12.78° C | 49% | 1018.7 hPa | 0 mm | - | 13 W/m² | - |
| 1777140270 | 12.78° C | 47% | 1018.5 hPa | 0 mm | - | 16 W/m² | - |
| 1777139670 | 13.33° C | 46% | 1018.5 hPa | 0 mm | - | 19 W/m² | - |
| 1777139070 | 13.33° C | 44% | 1018.5 hPa | 0 mm | - | 22 W/m² | - |
| 1777138469 | 13.89° C | 41% | 1018.5 hPa | 0 mm | - | 41 W/m² | - |
| 1777137870 | 13.89° C | 39% | 1018.4 hPa | 0 mm | - | 127 W/m² | - |
| 1777137270 | 13.89° C | 37% | 1018.4 hPa | 0 mm | - | 158 W/m² | - |
* Rain latest hour (hover to see other rain measurements)
** Current wind speed in m/s (hover to see current wind gust speed)